Weather History for KOMK - July, 2013

Change the Weather History Date:

Tuesday, July 30, 2013

  Actual Average Record
Temperature  
Mean Temperature 77 °F 75 °F  
Max Temperature 92 °F 91 °F 104 °F (2003)
Min Temperature 62 °F 59 °F 43 °F (1970)
Degree Days  
Heating Degree Days 0 0  
Month to date heating degree days 0 11  
Since 1 June heating degree days 67 80  
Since 1 July heating degree days 0 11  
Cooling Degree Days 12 10  
Month to date cooling degree days 335 243  
Year to date cooling degree days 423 350  
Since 1 June cooling degree days 400 327  
Growing Degree Days 26 (Base 50)    
Moisture  
Dew Point 40 °F    
Average Humidity 29    
Maximum Humidity 43    
Minimum Humidity 14    
Precipitation  
Precipitation 0.00 in 0.02 in 0.80 in (1997)
Month to date precipitation 0.26 0.79  
Year to date precipitation 6.10 8.54  
Sea Level Pressure  
Sea Level Pressure 30.00 in    
Wind  
Wind Speed 9 mph (NNW)    
Max Wind Speed 16 mph    
Max Gust Speed 20 mph    
Visibility 10 miles    
Events      
T = Trace of Precipitation, MM = Missing Value Source: NWS Daily Summary

Daily Weather History Graph

Daily Weather History Graph

Search for Another Location

Airport or City:

Trip Planner

Search our weather history database for the weather conditions in past years. The results will help you decide how hot, cold, wet, or windy it might be!

Date:

Astronomy

Jul. 30, 2013 Rise Set
Actual Time 5:30 AM PDT 8:37 PM PDT
Civil Twilight 4:53 AM PDT 9:14 PM PDT
Nautical Twilight 4:04 AM PDT 10:02 PM PDT
Astronomical Twilight 3:04 AM PDT 11:02 PM PDT
Moon No Moon Rise 3:00 PM PDT (7/30)
Length of Visible Light 16h 21m
Length of Day
15h 06m
Last Quarter, 40% of the Moon is Illuminated
Jul 30
Last Quarter
Aug 6
New
Aug 14
First Quarter
Aug 20
Full
Aug 28
Last Quarter

Hourly Weather History & Observations

Time (PDT) Temp. Dew Point Humidity Pressure Visibility Wind Dir Wind Speed Gust Speed Precip Events Conditions
12:53 AM 71.1 °F 39.9 °F 32% 29.94 in 10.0 mi North 8.1 mph - N/A   Clear
1:53 AM 66.0 °F 39.9 °F 38% 29.94 in 10.0 mi NW 6.9 mph - N/A   Clear
2:53 AM 66.0 °F 42.1 °F 42% 29.96 in 10.0 mi WNW 9.2 mph - N/A   Clear
3:53 AM 66.0 °F 43.0 °F 43% 29.97 in 10.0 mi WNW 13.8 mph - N/A   Clear
4:53 AM 64.0 °F 41.0 °F 43% 29.99 in 10.0 mi WNW 9.2 mph - N/A   Clear
5:53 AM 62.1 °F 39.0 °F 43% 30.00 in 10.0 mi NW 10.4 mph - N/A   Clear
6:53 AM 66.9 °F 39.9 °F 37% 30.03 in 10.0 mi NNW 10.4 mph - N/A   Clear
7:53 AM 70.0 °F 41.0 °F 35% 30.04 in 10.0 mi NNW 11.5 mph - N/A   Clear
8:53 AM 75.0 °F 39.9 °F 28% 30.04 in 10.0 mi North 13.8 mph - N/A   Scattered Clouds
9:53 AM 77.0 °F 39.9 °F 26% 30.04 in 10.0 mi North 12.7 mph 19.6 mph N/A   Partly Cloudy
10:53 AM 82.0 °F 39.9 °F 22% 30.04 in 10.0 mi North 13.8 mph - N/A   Mostly Cloudy
11:53 AM 87.1 °F 37.0 °F 17% 30.03 in 10.0 mi North 12.7 mph - N/A   Clear
12:53 PM 88.0 °F 34.0 °F 15% 30.02 in 10.0 mi North 11.5 mph - N/A   Clear
1:53 PM 90.0 °F 34.0 °F 14% 30.01 in 10.0 mi North 10.4 mph - N/A   Clear
2:53 PM 89.1 °F 35.1 °F 15% 30.01 in 10.0 mi Variable 6.9 mph - N/A   Clear
3:53 PM 91.0 °F 37.0 °F 15% 29.99 in 10.0 mi Variable 4.6 mph 16.1 mph N/A   Clear
4:53 PM 91.0 °F 37.0 °F 15% 29.99 in 10.0 mi Calm Calm - N/A   Clear
5:53 PM 89.1 °F 37.9 °F 16% 29.98 in 10.0 mi NNW 5.8 mph - N/A   Clear
6:53 PM 86.0 °F 39.0 °F 19% 29.98 in 10.0 mi North 3.5 mph - N/A   Partly Cloudy
7:53 PM 75.9 °F 42.1 °F 30% 30.00 in 10.0 mi WNW 5.8 mph - N/A   Clear
8:53 PM 75.9 °F 42.1 °F 30% 30.01 in 10.0 mi NW 11.5 mph - N/A   Clear
9:53 PM 73.0 °F 44.1 °F 35% 30.03 in 10.0 mi WNW 8.1 mph - N/A   Clear
10:53 PM 68.0 °F 44.1 °F 42% 30.04 in 10.0 mi NW 5.8 mph - N/A   Clear